Monroe, MI

8:53 PM EDT on July 27, 2017 (GMT -0400)
Custer

Weather History for KTTF - September, 2011

Change the Weather History Date:

Saturday, September 24, 2011

  Actual Average Record
Temperature  
Mean Temperature 54 °F -  
Max Temperature 64 °F 68 °F 89 °F (2010)
Min Temperature 44 °F 47 °F 33 °F (2012)
Degree Days  
Heating Degree Days 11    
Growing Degree Days 4 (Base 50)    
Moisture  
Dew Point 54 °F    
Average Humidity 96    
Maximum Humidity 100    
Minimum Humidity 73    
Precipitation  
Precipitation 0.00 in - - ()
Sea Level Pressure  
Sea Level Pressure 30.03 in    
Wind  
Wind Speed 3 mph (ESE)    
Max Wind Speed 9 mph    
Max Gust Speed -    
Visibility 5 miles    
Events Fog , Rain    
Averages and records for this station are not official NWS values.
T = Trace of Precipitation, MM = Missing Value Source: NWS Daily Summary

Daily Weather History Graph

Daily Weather History Graph

Search for Another Location

Airport or City:

Trip Planner

Search our weather history database for the weather conditions in past years. The results will help you decide how hot, cold, wet, or windy it might be!

Date:

Astronomy

Sep. 24, 2011 Rise Set
Actual Time 7:22 AM EDT 7:27 PM EDT
Civil Twilight 6:55 AM EDT 7:55 PM EDT
Nautical Twilight 6:22 AM EDT 8:28 PM EDT
Astronomical Twilight 5:49 AM EDT 9:01 PM EDT
Moon 3:54 AM EDT (9/24) 5:36 PM EDT (9/24)
Length of Visible Light 13h 00m
Length of Day
12h 05m
Waning Crescent, 11% of the Moon is Illuminated
Sep 24
Waning Crescent
Sep 27
New
Oct 3
First Quarter
Oct 11
Full
Oct 19
Last Quarter

Hourly Weather History & Observations

Time (EDT) Temp. Dew Point Humidity Pressure Visibility Wind Dir Wind Speed Gust Speed Precip Events Conditions
12:12 AM 51.8 °F 51.8 °F 100% 30.00 in 3.0 mi North 4.6 mph - N/A   Overcast
12:32 AM 51.8 °F 51.8 °F 100% 30.00 in 5.0 mi Calm Calm - N/A   Mostly Cloudy
12:52 AM 51.8 °F 51.8 °F 100% 30.00 in 5.0 mi Calm Calm - N/A   Mostly Cloudy
1:12 AM 51.8 °F 51.8 °F 100% 30.00 in 5.0 mi Calm Calm - N/A   Overcast
1:33 AM 51.8 °F 51.8 °F 100% 30.00 in 5.0 mi Calm Calm - N/A Rain Light Rain
1:53 AM 53.6 °F 53.6 °F 100% 30.00 in 5.0 mi Calm Calm - N/A   Light Drizzle
2:13 AM 53.6 °F 53.6 °F 100% 30.00 in 5.0 mi Calm Calm - N/A   Overcast
2:33 AM 53.6 °F 53.6 °F 100% 30.00 in 5.0 mi North 3.5 mph - N/A   Overcast
3:13 AM 51.8 °F 51.8 °F 100% 29.99 in 4.0 mi Calm Calm - N/A   Scattered Clouds
3:33 AM 51.8 °F 51.8 °F 100% 29.99 in 4.0 mi Calm Calm - N/A   Clear
3:53 AM 48.2 °F 48.2 °F 100% 30.00 in 0.5 mi Calm Calm - N/A Fog Fog
4:13 AM 48.2 °F 48.2 °F 100% 30.00 in 0.2 mi Calm Calm - N/A Fog Fog
4:34 AM 46.4 °F 46.4 °F 100% 30.00 in 0.2 mi Calm Calm - N/A Fog Fog
4:54 AM 46.4 °F 46.4 °F 100% 30.00 in 0.5 mi Calm Calm - N/A Fog Fog
5:14 AM 46.4 °F 46.4 °F 100% 30.01 in 0.2 mi Calm Calm - N/A Fog Fog
5:34 AM 46.4 °F 46.4 °F 100% 30.01 in 0.5 mi Calm Calm - N/A Fog Fog
5:54 AM 44.6 °F 44.6 °F 100% 30.01 in 0.2 mi Calm Calm - N/A Fog Fog
6:14 AM 46.4 °F 46.4 °F 100% 30.01 in 0.2 mi Calm Calm - N/A Fog Fog
6:34 AM 44.6 °F 44.6 °F 100% 30.02 in 0.8 mi Calm Calm - N/A   Mostly Cloudy
6:54 AM 44.6 °F 44.6 °F 100% 30.02 in 0.5 mi Calm Calm - N/A Fog Fog
7:14 AM 48.2 °F 48.2 °F 100% 30.02 in 7.0 mi NE 4.6 mph - N/A   Clear
7:34 AM 48.2 °F 48.2 °F 100% 30.02 in 4.0 mi Calm Calm - N/A   Clear
7:55 AM 48.2 °F 48.2 °F 100% 30.02 in 0.2 mi Calm Calm - N/A Fog Fog
8:15 AM 50.0 °F 50.0 °F 100% 30.03 in 0.2 mi Calm Calm - N/A Fog Fog
8:35 AM 51.8 °F 51.8 °F 100% 30.04 in 3.0 mi Calm Calm - N/A   Overcast
8:55 AM 53.6 °F 53.6 °F 100% 30.04 in 4.0 mi NE 5.8 mph - N/A   Mostly Cloudy
9:15 AM 53.6 °F 53.6 °F 100% 30.04 in 5.0 mi ENE 4.6 mph - N/A   Mostly Cloudy
9:35 AM 55.4 °F 55.4 °F 100% 30.04 in 5.0 mi ENE 3.5 mph - N/A   Overcast
9:55 AM 57.2 °F 57.2 °F 100% 30.05 in 5.0 mi ESE 3.5 mph - N/A   Overcast
10:10 AM 57.2 °F 57.2 °F 100% 30.06 in 5.0 mi SE 4.6 mph - N/A   Overcast
10:30 AM 57.2 °F 57.2 °F 100% 30.05 in 5.0 mi ESE 6.9 mph - N/A   Overcast
11:11 AM 57.2 °F 57.2 °F 100% 30.06 in 5.0 mi SE 8.1 mph - N/A   Overcast
11:31 AM 57.2 °F 57.2 °F 100% 30.07 in 5.0 mi SSE 8.1 mph - N/A   Overcast
11:51 AM 57.2 °F 57.2 °F 100% 30.06 in 5.0 mi SSE 6.9 mph - N/A   Overcast
12:11 PM 57.2 °F 57.2 °F 100% 30.06 in 5.0 mi SSE 9.2 mph - N/A   Overcast
12:31 PM 59.0 °F 59.0 °F 100% 30.07 in 7.0 mi SSE 9.2 mph - N/A   Overcast
12:52 PM 59.0 °F 59.0 °F 100% 30.07 in 7.0 mi SSE 6.9 mph - N/A   Overcast
1:12 PM 59.0 °F 59.0 °F 100% 30.06 in 7.0 mi South 6.9 mph - N/A   Overcast
1:32 PM 59.0 °F 59.0 °F 100% 30.06 in 7.0 mi SE 5.8 mph - N/A   Overcast
1:52 PM 60.8 °F 60.8 °F 100% 30.06 in 10.0 mi SSE 6.9 mph - N/A   Mostly Cloudy
2:12 PM 60.8 °F 60.8 °F 100% 30.04 in 10.0 mi SSE 6.9 mph - N/A   Scattered Clouds
2:32 PM 62.6 °F 57.2 °F 82% 30.03 in 10.0 mi SE 8.1 mph - N/A   Scattered Clouds
2:52 PM 62.6 °F 57.2 °F 82% 30.03 in 10.0 mi SSE 6.9 mph - N/A   Scattered Clouds
3:33 PM 64.4 °F 57.2 °F 77% 30.03 in 10.0 mi SSE 6.9 mph - N/A   Clear
3:53 PM 64.4 °F 57.2 °F 77% 30.03 in 10.0 mi SSE 3.5 mph - N/A   Clear
4:13 PM 64.4 °F 55.4 °F 73% 30.02 in 10.0 mi SSW 5.8 mph - N/A   Clear
4:33 PM 64.4 °F 57.2 °F 77% 30.02 in 10.0 mi East 5.8 mph - N/A   Scattered Clouds
4:53 PM 62.6 °F 55.4 °F 77% 30.03 in 10.0 mi ESE 4.6 mph - N/A   Clear
5:13 PM 64.4 °F 57.2 °F 77% 30.03 in 10.0 mi East 5.8 mph - N/A   Clear
5:33 PM 62.6 °F 57.2 °F 82% 30.03 in 10.0 mi ESE 9.2 mph - N/A   Clear
5:53 PM 60.8 °F 57.2 °F 88% 30.03 in 10.0 mi East 4.6 mph - N/A   Clear
6:13 PM 60.8 °F 59.0 °F 94% 30.03 in 10.0 mi East 3.5 mph - N/A   Clear
6:33 PM 60.8 °F 59.0 °F 94% 30.03 in 7.0 mi East 4.6 mph - N/A   Clear
6:54 PM 60.8 °F 60.8 °F 100% 30.03 in 7.0 mi ENE 4.6 mph - N/A   Mostly Cloudy
7:14 PM 59.0 °F 59.0 °F 100% 30.03 in 5.0 mi ENE 3.5 mph - N/A   Mostly Cloudy
7:54 PM 57.2 °F 57.2 °F 100% 30.03 in 7.0 mi East 3.5 mph - N/A   Scattered Clouds
8:14 PM 57.2 °F 57.2 °F 100% 30.03 in 7.0 mi East 4.6 mph - N/A   Scattered Clouds
8:34 PM 57.2 °F 57.2 °F 100% 30.03 in 10.0 mi East 4.6 mph - N/A   Scattered Clouds
8:54 PM 57.2 °F 57.2 °F 100% 30.04 in 10.0 mi ENE 4.6 mph - N/A   Clear
9:14 PM 57.2 °F 57.2 °F 100% 30.04 in 10.0 mi East 4.6 mph - N/A   Clear
9:35 PM 57.2 °F 57.2 °F 100% 30.05 in 10.0 mi ENE 4.6 mph - N/A   Clear
9:55 PM 57.2 °F 57.2 °F 100% 30.05 in 10.0 mi ENE 4.6 mph - N/A   Clear
10:15 PM 57.2 °F 57.2 °F 100% 30.05 in 10.0 mi ENE 4.6 mph - N/A   Clear
10:35 PM 57.2 °F 57.2 °F 100% 30.05 in 7.0 mi East 3.5 mph - N/A   Clear
10:55 PM 57.2 °F 57.2 °F 100% 30.06 in 7.0 mi ENE 4.6 mph - N/A   Clear
11:15 PM 57.2 °F 57.2 °F 100% 30.05 in 7.0 mi ENE 4.6 mph - N/A   Clear
11:35 PM 57.2 °F 57.2 °F 100% 30.05 in 7.0 mi ENE 3.5 mph - N/A   Clear